Torna al catalogo

CZ-4C DEB

AttivoSSO
NORAD 43412·DEBRIS·🇨🇳 China

Lanciato Nov 20, 2013 da Taiyuan Satellite Launch Center

Loading…

Prossimi Passaggi (prossime 24 ore)

TLE

AggiornatoSource: Space-Track

Epoca: Sep 13, 2026, 04:47 UTC

1 43412U 13065C   26256.19996941 -.00000013  00000-0  79045-4 0  9992
2 43412 100.6026  19.2589 0133162  61.3002 300.1421 13.17727132607911

Traccia CZ-4C DEB in tempo reale con AllMySat

Download on the App Store